Location: Kalwaria Zebrzydowska
(49.8686°N, 19.6647°E)
Time: 12:42:41
(UTC+02:00)

ISS - Pass Details

Date: 30 January 2019
Orbit: 411 x 421 km, 51.6° (Epoch: 16 October)

Event Time Altitude Azimuth Distance (km) Brightness Sun altitude
Rises 17:30:06 0° 260° (W) 2,368 2.3 -9.5°
Reaches altitude 10° 17:32:12 10° 262° (W) 1,506 0.6 -9.9°
Maximum altitude 17:35:35 74° 348° (NNW) 443 -3.7 -10.4°
Enters shadow 17:38:06 17° 73° (ENE) 1,160 -2.2 -10.8°
